User: anonymous   Login
Location: Caltech
(34.1382°N, 118.1253°W)
Time: 01:23:53
(UTC-08:00)
Language:

Cosmos 1484 Rocket - Orbit

View from above orbital plane
View from above orbital plane
View from above satellite
View from above satellite

Ground track
Ground track

The orbit data is extracted from the following two-line orbital elements,

1 14208U 83075B   14330.50496666  .00004064  00000-0  26447-3 0  1825
2 14208 097.4082 001.5346 0043575 106.0919 254.5114 15.07722189706654
Epoch (UTC): 26 November 2014 12:07:09
Eccentricity: 0.0043575
inclination: 97.4082°
perigee height: 513 km
apogee height: 573 km
right ascension of ascending node: 1.5346°
argument of perigee: 106.0919°
revolutions per day: 15.07722189
mean anomaly at epoch: 254.5114°
orbit number at epoch: 70665

The dashed part of the orbit path shows where the satellite is in the earth's shadow,  

DLR